Location: *
(47.7167°N, 1.7333°W)
Time: 16:52:33
(UTC+00:00)

Cosmos 2058 Rocket - Pass Details

Date: 09 April 2020
Orbit: 610 x 640 km, 82.5° (Epoch: 04 June)

Event Time Altitude Azimuth Distance (km) Brightness Sun altitude
Rises 20:30:30 0° 202° (SSW) 2,932 6.4 -16.5°
Reaches altitude 10° 20:32:48 10° 208° (SSW) 2,028 5.6 -16.9°
Maximum altitude 20:37:10 49° 284° (WNW) 834 4.1 -17.5°
Drops below altitude 10° 20:41:33 10° 359° (N) 2,036 6.2 -18.1°
Sets 20:43:52 0° 5° (N) 2,946 7.0 -18.4°
